TimeEDT,TemperatureF,Dew PointF,Humidity,Sea Level PressureIn,VisibilityMPH,Wind Direction,Wind SpeedMPH,Gust SpeedMPH,PrecipitationIn,Events,Conditions,WindDirDegrees,DateUTC
12:15 AM,35.6,35.6,100,29.62,7.0,NW,9.2,-,N/A,,Overcast,320,2012-11-01 04:15:00
12:35 AM,35.6,35.6,100,29.61,4.0,NW,12.7,-,N/A,,Overcast,310,2012-11-01 04:35:00
12:55 AM,35.6,35.6,100,29.61,8.0,NW,13.8,21.9,N/A,,Overcast,320,2012-11-01 04:55:00
1:15 AM,35.6,35.6,100,29.61,7.0,NW,12.7,21.9,N/A,,Overcast,310,2012-11-01 05:15:00
1:35 AM,35.6,35.6,100,29.61,3.0,NW,16.1,-,N/A,,Overcast,320,2012-11-01 05:35:00
1:55 AM,35.6,33.8,93,29.61,5.0,NNW,10.4,-,N/A,,Overcast,330,2012-11-01 05:55:00
2:15 AM,35.6,33.8,93,29.61,7.0,NNW,13.8,-,N/A,,Overcast,330,2012-11-01 06:15:00
2:35 AM,35.6,33.8,93,29.61,4.0,NW,11.5,-,N/A,,Overcast,320,2012-11-01 06:35:00
2:55 AM,35.6,35.6,100,29.61,3.0,NW,11.5,-,N/A,,Overcast,310,2012-11-01 06:55:00
3:15 AM,35.6,35.6,100,29.61,5.0,NW,11.5,16.1,N/A,,Overcast,310,2012-11-01 07:15:00
3:35 AM,35.6,35.6,100,29.61,7.0,NW,12.7,21.9,N/A,,Overcast,310,2012-11-01 07:35:00
3:55 AM,35.6,35.6,100,29.61,7.0,NW,9.2,17.3,N/A,,Overcast,310,2012-11-01 07:55:00
4:15 AM,35.6,35.6,100,29.60,5.0,NW,11.5,-,N/A,,Overcast,310,2012-11-01 08:15:00
4:35 AM,37.4,35.6,93,29.60,4.0,NW,10.4,17.3,N/A,,Overcast,310,2012-11-01 08:35:00
4:55 AM,37.4,35.6,93,29.60,6.0,NW,11.5,18.4,N/A,,Overcast,310,2012-11-01 08:55:00
5:15 AM,35.6,35.6,100,29.60,5.0,NW,15.0,-,N/A,,Overcast,310,2012-11-01 09:15:00
5:35 AM,35.6,35.6,100,29.61,10.0,NW,12.7,-,N/A,,Overcast,310,2012-11-01 09:35:00
5:55 AM,35.6,35.6,100,29.60,8.0,NW,11.5,16.1,N/A,,Overcast,310,2012-11-01 09:55:00
6:15 AM,35.6,35.6,100,29.60,8.0,NW,10.4,17.3,N/A,,Overcast,310,2012-11-01 10:15:00
6:35 AM,37.4,35.6,93,29.60,9.0,NW,11.5,-,N/A,,Overcast,310,2012-11-01 10:35:00
6:55 AM,37.4,37.4,100,29.59,7.0,NW,17.3,24.2,N/A,,Overcast,310,2012-11-01 10:55:00
7:15 AM,37.4,37.4,100,29.60,8.0,NW,17.3,-,N/A,,Overcast,320,2012-11-01 11:15:00
7:35 AM,37.4,37.4,100,29.60,10.0,NW,11.5,-,N/A,,Overcast,320,2012-11-01 11:35:00
7:55 AM,37.4,35.6,93,29.61,10.0,NW,13.8,19.6,N/A,,Overcast,310,2012-11-01 11:55:00
8:15 AM,37.4,35.6,93,29.61,10.0,NW,13.8,-,N/A,,Overcast,310,2012-11-01 12:15:00
8:35 AM,37.4,35.6,93,29.61,10.0,NW,12.7,20.7,N/A,,Overcast,320,2012-11-01 12:35:00
8:55 AM,37.4,37.4,100,29.62,10.0,WNW,10.4,17.3,N/A,,Overcast,290,2012-11-01 12:55:00
9:15 AM,37.4,37.4,100,29.62,5.0,WNW,15.0,21.9,N/A,,Overcast,300,2012-11-01 13:15:00
9:35 AM,37.4,35.6,93,29.62,5.0,NW,15.0,20.7,N/A,,Overcast,310,2012-11-01 13:35:00
9:55 AM,37.4,35.6,93,29.63,5.0,WNW,13.8,19.6,N/A,,Overcast,290,2012-11-01 13:55:00
10:15 AM,37.4,37.4,100,29.63,7.0,WNW,13.8,18.4,N/A,,Overcast,300,2012-11-01 14:15:00
10:35 AM,37.4,35.6,93,29.63,10.0,NW,13.8,27.6,N/A,,Overcast,310,2012-11-01 14:35:00
10:55 AM,37.4,35.6,93,29.63,9.0,WNW,17.3,23.0,N/A,,Overcast,300,2012-11-01 14:55:00
11:15 AM,37.4,35.6,93,29.63,10.0,WNW,13.8,21.9,N/A,,Overcast,300,2012-11-01 15:15:00
11:35 AM,37.4,37.4,100,29.62,10.0,NW,16.1,24.2,N/A,,Overcast,310,2012-11-01 15:35:00
11:55 AM,37.4,37.4,100,29.63,9.0,WNW,17.3,27.6,N/A,,Overcast,300,2012-11-01 15:55:00
12:15 PM,39.2,37.4,93,29.63,10.0,NW,17.3,27.6,N/A,,Overcast,310,2012-11-01 16:15:00
12:35 PM,37.4,37.4,100,29.63,10.0,NW,18.4,-,N/A,,Overcast,310,2012-11-01 16:35:00
12:55 PM,39.2,35.6,87,29.63,10.0,NW,18.4,26.5,N/A,,Overcast,310,2012-11-01 16:55:00
1:15 PM,39.2,37.4,93,29.63,10.0,NW,15.0,23.0,N/A,,Overcast,310,2012-11-01 17:15:00
1:35 PM,37.4,35.6,93,29.62,10.0,NW,18.4,24.2,N/A,,Overcast,310,2012-11-01 17:35:00
1:55 PM,39.2,35.6,87,29.63,10.0,WNW,15.0,26.5,N/A,,Overcast,300,2012-11-01 17:55:00
2:15 PM,39.2,35.6,87,29.61,10.0,WNW,25.3,32.2,N/A,,Overcast,300,2012-11-01 18:15:00
2:35 PM,37.4,37.4,100,29.63,6.0,West,11.5,23.0,N/A,,Overcast,280,2012-11-01 18:35:00
2:55 PM,37.4,37.4,100,29.62,10.0,WNW,13.8,21.9,N/A,,Overcast,300,2012-11-01 18:55:00
3:15 PM,37.4,37.4,100,29.63,9.0,WNW,18.4,27.6,N/A,,Overcast,290,2012-11-01 19:15:00
3:35 PM,37.4,37.4,100,29.63,9.0,West,16.1,24.2,N/A,,Overcast,280,2012-11-01 19:35:00
3:55 PM,37.4,35.6,93,29.64,8.0,WNW,12.7,-,N/A,,Overcast,300,2012-11-01 19:55:00
4:15 PM,37.4,37.4,100,29.64,10.0,WNW,12.7,-,N/A,,Overcast,290,2012-11-01 20:15:00
4:35 PM,37.4,37.4,100,29.65,10.0,WNW,11.5,16.1,N/A,,Overcast,290,2012-11-01 20:35:00
4:55 PM,37.4,37.4,100,29.65,9.0,NNW,11.5,18.4,N/A,,Overcast,330,2012-11-01 20:55:00
5:15 PM,37.4,35.6,93,29.65,10.0,NW,17.3,24.2,N/A,,Overcast,310,2012-11-01 21:15:00
5:35 PM,35.6,35.6,100,29.66,10.0,WNW,16.1,21.9,N/A,,Overcast,300,2012-11-01 21:35:00
5:55 PM,35.6,35.6,100,29.67,9.0,NW,11.5,-,N/A,,Overcast,320,2012-11-01 21:55:00
6:15 PM,35.6,35.6,100,29.68,5.0,WNW,12.7,-,N/A,,Overcast,300,2012-11-01 22:15:00
6:35 PM,35.6,35.6,100,29.68,4.0,WNW,16.1,21.9,N/A,,Overcast,300,2012-11-01 22:35:00
6:55 PM,35.6,35.6,100,29.69,5.0,NW,10.4,-,N/A,,Overcast,320,2012-11-01 22:55:00
7:15 PM,33.8,33.8,100,29.70,6.0,NW,9.2,-,N/A,,Overcast,310,2012-11-01 23:15:00
7:35 PM,33.8,33.8,100,29.70,5.0,NNW,11.5,19.6,N/A,,Overcast,330,2012-11-01 23:35:00
7:55 PM,33.8,32.0,93,29.71,9.0,North,10.4,-,N/A,,Overcast,350,2012-11-01 23:55:00
8:15 PM,33.8,33.8,100,29.72,3.0,NNW,10.4,18.4,N/A,,Overcast,340,2012-11-02 00:15:00
8:35 PM,33.8,32.0,93,29.72,10.0,NNW,8.1,16.1,N/A,,Overcast,340,2012-11-02 00:35:00
8:55 PM,33.8,30.2,87,29.73,10.0,North,9.2,-,N/A,,Overcast,350,2012-11-02 00:55:00
9:15 PM,33.8,30.2,87,29.74,10.0,North,13.8,19.6,N/A,,Overcast,350,2012-11-02 01:15:00
9:35 PM,33.8,30.2,87,29.75,10.0,North,8.1,-,N/A,,Overcast,350,2012-11-02 01:35:00
9:55 PM,33.8,28.4,81,29.75,10.0,North,8.1,-,N/A,,Overcast,350,2012-11-02 01:55:00
10:15 PM,33.8,28.4,81,29.75,10.0,North,9.2,-,N/A,,Overcast,350,2012-11-02 02:15:00
10:35 PM,33.8,28.4,81,29.76,10.0,North,9.2,-,N/A,,Overcast,350,2012-11-02 02:35:00
10:55 PM,33.8,28.4,81,29.76,10.0,North,8.1,-,N/A,,Overcast,350,2012-11-02 02:55:00
11:15 PM,33.8,28.4,81,29.76,10.0,North,10.4,16.1,N/A,,Overcast,350,2012-11-02 03:15:00
11:35 PM,32.0,26.6,80,29.77,9.0,North,16.1,19.6,N/A,,Overcast,360,2012-11-02 03:35:00
11:55 PM,30.2,28.4,93,29.77,5.0,North,10.4,-,N/A,,Overcast,360,2012-11-02 03:55:00